Location: Krakow
(50.0212°N, 19.9423°E)
Time: 14:29:46
(UTC+02:00)

NOAA 18 - Pass Details

Date: 07 May 2025
Orbit: 837 x 857 km, 98.8° (Epoch: 14 May)

Event Time Altitude Azimuth Distance (km) Brightness Sun altitude
Exits shadow 22:36:24 30° 157° (SSE) 1,486 5.9 -17.9°
Maximum altitude 22:39:15 83° 74° (ENE) 871 5.2 -18.1°
Drops below altitude 10° 22:44:49 10° 346° (NNW) 2,500 8.8 -18.5°
Sets 22:47:12 0° 346° (NNW) 3,439 9.9 -18.7°
